Flag for Switzerland Weather past 2 weeks in Bern, Bern, Switzerland

Now
86 °F

Passing clouds.


Feels Like: 85 °F
Forecast: 56 / 80 °F
Wind: 7 mph from Northwest

Location: Bern / Belp

Current Time: Aug 3, 2015 at 5:13:53 PM

Latest Report: Aug 3, 2015 at 4:50 PM


Visibility: N/A

Pressure: 30.04 "Hg (28.29 "Hg at 533m altitude)

Humidity: 40%

Dew point: 59 °F

Location of BernLocation

Historic Weather in Bern — Graph

°F

Bern temperature yesterday

Maximum temperature yesterday: 77 °F (at 5:20 PM)
Minimum temperature yesterday: 59 °F (at 1:20 AM)
Average temperature yesterday: 66 °F

Past Weeks' High & Low Weather Summary

 TemperatureHumidityPressure
High93 °F (Jul 21, 3:20 PM)100% (Jul 20, 4:50 AM)30.12 "Hg (Jul 20, 4:50 AM)
Low45 °F (Jul 31, 4:50 AM)30% (Jul 21, 3:50 PM)29.74 "Hg (Jul 24, 5:20 PM)
Average68 °F73%29.98 "Hg
* Reported Jul 19 3:20 PM — Aug 3 3:50 PM, Bern, Weather by CustomWeather, © 2015

Note: Actual official high and low records may vary slightly from our data, if they occured in-between our weather recording intervals... More about our weather records

Advertising

Bern weather history for previous 24 hours

 ConditionsComfort  
Time TempWeatherWind HumidityBarometerVisibility
3:50 PM
Mon, Aug 3
86 °FPassing clouds.7 mph43%30.07 "HgN/A
3:20 PM84 °FSunny.3 mph40%30.07 "Hg10 mi
2:50 PM82 °FPassing clouds.6 mph42%30.07 "HgN/A
2:20 PM82 °FSunny.3 mph45%30.07 "Hg10 mi
1:50 PM82 °FPassing clouds.6 mph48%30.09 "HgN/A
1:20 PM81 °FPassing clouds.3 mph54%30.09 "HgN/A
12:50 PM79 °FPassing clouds.3 mph58%30.09 "HgN/A
12:20 PM79 °FPassing clouds.7 mph61%30.09 "HgN/A
11:50 AM77 °FSunny.6 mph65%30.09 "Hg10 mi
11:20 AM75 °FSunny.2 mph65%30.12 "Hg10 mi
10:50 AM75 °FSunny.2 mph65%30.12 "Hg10 mi
10:20 AM72 °FSunny.1 mph69%30.12 "Hg10 mi
9:50 AM72 °FSunny.2 mph69%30.12 "Hg10 mi
9:20 AM70 °FSunny.3 mph73%30.12 "Hg10 mi
8:50 AM68 °FSunny.5 mph83%30.12 "Hg10 mi
8:20 AM66 °FSunny.2 mph83%30.09 "Hg10 mi
7:50 AM63 °FSunny.3 mph94%30.09 "Hg10 mi
7:20 AM59 °FSunny.2 mph100%30.09 "Hg10 mi
6:50 AM55 °FLight fog.5 mph100%30.09 "HgN/A
6:20 AM55 °FLight fog.3 mph100%30.09 "HgN/A
5:50 AM55 °FLight fog.3 mph100%30.09 "HgN/A
5:20 AM55 °FClear.1 mph100%30.09 "Hg10 mi
4:50 AM57 °FClear.1 mph100%30.09 "Hg10 mi
4:20 AM57 °FClear.1 mph100%30.09 "Hg10 mi
3:50 AM57 °FClear.1 mph100%30.09 "Hg10 mi
3:20 AM57 °FClear.No wind100%30.09 "Hg10 mi
2:50 AM59 °FClear.No wind94%30.09 "Hg10 mi
2:20 AM57 °FClear.1 mph100%30.09 "Hg10 mi
1:50 AM57 °FClear.2 mph100%30.09 "Hg10 mi
1:20 AM59 °FCool.1 mph100%30.09 "Hg5 mi
12:50 AM59 °FClear.2 mph100%30.09 "Hg10 mi
12:20 AM59 °FClear.2 mph100%30.07 "Hg10 mi
11:50 PM
Sun, Aug 2
61 °FClear.1 mph94%30.09 "Hg10 mi
11:20 PM61 °FClear.1 mph94%30.07 "Hg10 mi
10:50 PM61 °FClear.1 mph94%30.07 "Hg10 mi
10:20 PM64 °FClear.1 mph88%30.07 "Hg10 mi
9:50 PM66 °FSunny.2 mph83%30.07 "Hg10 mi
9:20 PM68 °FSunny.2 mph78%30.07 "Hg10 mi
8:50 PM72 °FPassing clouds.5 mph65%30.04 "HgN/A
8:20 PM75 °FSunny.3 mph57%30.04 "Hg10 mi
7:50 PM77 °FPassing clouds.6 mph54%30.04 "HgN/A
7:20 PM77 °FPassing clouds.6 mph54%30.04 "HgN/A
6:50 PM77 °FPassing clouds.5 mph54%30.04 "HgN/A
6:20 PM77 °FPassing clouds.7 mph54%30.07 "HgN/A
5:50 PM77 °FScattered clouds.6 mph54%30.07 "HgN/A
5:20 PM77 °FScattered clouds.6 mph54%30.07 "HgN/A
Weather by CustomWeather, © 2015

See weather overviewHow to use our weather pages